Time,TemperatureF,DewpointF,PressureIn,WindDirection,WindDirectionDegrees,WindSpeedMPH,WindSpeedGustMPH,Humidity,HourlyPrecipIn,Conditions,Clouds,dailyrainin,SolarRadiationWatts/m^2,SoftwareType,DateUTC
2013-10-19 00:00:00,44.0,44.0,-100.00,East,94,0.0,0.0,100,-99.99,,,0.00,0.000000,,2013-10-19 07:00:00,
2013-10-19 00:42:00,44.0,44.0,-100.00,East,94,0.0,0.0,100,-99.99,,,0.00,0.000000,,2013-10-19 07:42:00,
2013-10-19 00:52:00,44.0,44.0,-100.00,East,94,0.0,0.0,100,-99.99,,,0.00,0.000000,,2013-10-19 07:52:00,
2013-10-19 01:00:00,43.0,43.0,-100.00,SSE,149,0.0,1.0,100,-99.99,,,0.00,0.000000,,2013-10-19 08:00:00,
2013-10-19 01:42:00,43.0,43.0,-100.00,SSE,149,0.0,1.0,100,-99.99,,,0.00,0.000000,,2013-10-19 08:42:00,
2013-10-19 01:52:00,43.0,43.0,-100.00,SSE,149,0.0,1.0,100,-99.99,,,0.00,0.000000,,2013-10-19 08:52:00,
2013-10-19 02:00:00,43.0,43.0,-100.00,North,0,0.0,0.0,100,-99.99,,,0.00,0.000000,,2013-10-19 09:00:00,
2013-10-19 02:54:00,43.0,43.0,-100.00,North,0,0.0,0.0,100,-99.99,,,0.00,0.000000,,2013-10-19 09:54:00,
2013-10-19 03:00:00,43.0,43.0,-100.00,East,95,0.0,2.0,100,-99.99,,,0.00,0.000000,,2013-10-19 10:00:00,
2013-10-19 03:42:00,43.0,43.0,-100.00,East,95,0.0,2.0,100,-99.99,,,0.00,0.000000,,2013-10-19 10:42:00,
2013-10-19 03:53:00,43.0,43.0,-100.00,East,95,0.0,2.0,100,-99.99,,,0.00,0.000000,,2013-10-19 10:53:00,
2013-10-19 04:00:00,42.0,42.0,-100.00,ENE,63,1.0,2.0,100,-99.99,,,0.00,0.000000,,2013-10-19 11:00:00,
2013-10-19 04:42:00,42.0,42.0,-100.00,ENE,63,1.0,2.0,100,-99.99,,,0.00,0.000000,,2013-10-19 11:42:00,
2013-10-19 04:52:00,42.0,42.0,-100.00,ENE,63,1.0,2.0,100,-99.99,,,0.00,0.000000,,2013-10-19 11:52:00,
2013-10-19 05:00:00,40.0,40.0,-100.00,SE,130,0.0,1.0,100,-99.99,,,0.00,0.000000,,2013-10-19 12:00:00,
2013-10-19 05:42:00,40.0,40.0,-100.00,SE,130,0.0,1.0,100,-99.99,,,0.00,0.000000,,2013-10-19 12:42:00,
2013-10-19 05:52:00,40.0,40.0,-100.00,SE,130,0.0,1.0,100,-99.99,,,0.00,0.000000,,2013-10-19 12:52:00,
2013-10-19 06:00:00,42.0,42.0,-100.00,ESE,108,0.0,1.0,100,-99.99,,,0.00,0.000000,,2013-10-19 13:00:00,
2013-10-19 06:42:00,42.0,42.0,-100.00,ESE,108,0.0,1.0,100,-99.99,,,0.00,0.000000,,2013-10-19 13:42:00,
2013-10-19 06:52:00,42.0,42.0,-100.00,ESE,108,0.0,1.0,100,-99.99,,,0.00,0.000000,,2013-10-19 13:52:00,
2013-10-19 07:00:00,43.0,43.0,-100.00,East,81,1.0,2.0,100,-99.99,,,0.00,0.000000,,2013-10-19 14:00:00,
2013-10-19 07:42:00,43.0,43.0,-100.00,East,81,1.0,2.0,100,-99.99,,,0.00,0.000000,,2013-10-19 14:42:00,
2013-10-19 07:52:00,43.0,43.0,-100.00,East,81,1.0,2.0,100,-99.99,,,0.00,0.000000,,2013-10-19 14:52:00,
2013-10-19 08:00:00,41.0,41.0,-100.00,North,0,0.0,0.0,100,-99.99,,,0.00,16.969999,,2013-10-19 15:00:00,
2013-10-19 08:44:00,41.0,41.0,-100.00,North,0,0.0,0.0,100,-99.99,,,0.00,16.969999,,2013-10-19 15:44:00,
2013-10-19 08:55:00,41.0,41.0,-100.00,North,0,0.0,0.0,100,-99.99,,,0.00,16.969999,,2013-10-19 15:55:00,
2013-10-19 09:00:00,44.0,44.0,-100.00,WNW,287,0.0,2.0,100,-99.99,,,0.00,87.050003,,2013-10-19 16:00:00,
2013-10-19 09:53:00,44.0,44.0,-100.00,WNW,287,0.0,2.0,100,-99.99,,,0.00,87.050003,,2013-10-19 16:53:00,
2013-10-19 10:00:00,46.0,46.0,-100.00,SSE,162,2.0,5.0,100,-99.99,,,0.00,192.929993,,2013-10-19 17:00:00,
2013-10-19 10:43:00,46.0,46.0,-100.00,SSE,162,2.0,5.0,100,-99.99,,,0.00,192.929993,,2013-10-19 17:43:00,
2013-10-19 10:52:00,46.0,46.0,-100.00,SSE,162,2.0,5.0,100,-99.99,,,0.00,192.929993,,2013-10-19 17:52:00,
2013-10-19 11:00:00,51.0,51.0,-100.00,NNE,16,1.0,3.0,100,-99.99,,,0.00,298.920013,,2013-10-19 18:00:00,
2013-10-19 11:42:00,51.0,51.0,-100.00,NNE,16,1.0,3.0,100,-99.99,,,0.00,298.920013,,2013-10-19 18:42:00,
2013-10-19 11:52:00,51.0,51.0,-100.00,NNE,16,1.0,3.0,100,-99.99,,,0.00,298.920013,,2013-10-19 18:52:00,
2013-10-19 12:00:00,51.0,51.0,-100.00,NW,311,3.0,7.0,100,-99.99,,,0.00,403.519989,,2013-10-19 19:00:00,
2013-10-19 12:42:00,51.0,51.0,-100.00,NW,311,3.0,7.0,100,-99.99,,,0.00,403.519989,,2013-10-19 19:42:00,
2013-10-19 12:52:00,51.0,51.0,-100.00,NW,311,3.0,7.0,100,-99.99,,,0.00,403.519989,,2013-10-19 19:52:00,
2013-10-19 13:00:00,54.0,54.0,-100.00,North,350,5.0,8.0,100,-99.99,,,0.00,647.929993,,2013-10-19 20:00:00,
2013-10-19 13:52:00,54.0,54.0,-100.00,North,350,5.0,8.0,100,-99.99,,,0.00,647.929993,,2013-10-19 20:52:00,
2013-10-19 14:00:00,57.0,57.0,-100.00,NNW,337,7.0,13.0,96,-99.99,,,0.00,630.840027,,2013-10-19 21:00:00,
2013-10-19 14:54:00,57.0,57.0,-100.00,NNW,337,7.0,13.0,96,-99.99,,,0.00,630.840027,,2013-10-19 21:54:00,
2013-10-19 15:00:00,58.0,55.0,-100.00,North,349,7.0,13.0,89,-99.99,,,0.00,555.419983,,2013-10-19 22:00:00,
2013-10-19 15:53:00,58.0,55.0,-100.00,North,349,7.0,13.0,89,-99.99,,,0.00,555.419983,,2013-10-19 22:53:00,
2013-10-19 16:00:00,58.0,57.0,-100.00,NNW,348,7.0,15.0,94,-99.99,,,0.00,426.059998,,2013-10-19 23:00:00,
2013-10-19 16:42:00,58.0,57.0,-100.00,NNW,348,7.0,15.0,94,-99.99,,,0.00,426.059998,,2013-10-19 23:42:00,
2013-10-19 16:52:00,58.0,57.0,-100.00,NNW,348,7.0,15.0,94,-99.99,,,0.00,426.059998,,2013-10-19 23:52:00,
2013-10-19 17:00:00,57.0,56.0,-100.00,North,359,6.0,12.0,95,-99.99,,,0.00,257.660004,,2013-10-20 00:00:00,
2013-10-19 17:42:00,57.0,56.0,-100.00,North,359,6.0,12.0,95,-99.99,,,0.00,257.660004,,2013-10-20 00:42:00,
2013-10-19 17:52:00,57.0,56.0,-100.00,North,359,6.0,12.0,95,-99.99,,,0.00,257.660004,,2013-10-20 00:52:00,
2013-10-19 18:00:00,55.0,54.0,-100.00,North,350,6.0,11.0,95,-99.99,,,0.00,25.340000,,2013-10-20 01:00:00,
2013-10-19 18:42:00,55.0,54.0,-100.00,North,350,6.0,11.0,95,-99.99,,,0.00,25.340000,,2013-10-20 01:42:00,
2013-10-19 18:52:00,55.0,54.0,-100.00,North,350,6.0,11.0,95,-99.99,,,0.00,25.340000,,2013-10-20 01:52:00,
2013-10-19 19:00:00,53.0,53.0,-100.00,North,357,3.0,6.0,100,-99.99,,,0.00,0.230000,,2013-10-20 02:00:00,
2013-10-19 19:42:00,53.0,53.0,-100.00,North,357,3.0,6.0,100,-99.99,,,0.00,0.230000,,2013-10-20 02:42:00,
2013-10-19 19:52:00,53.0,53.0,-100.00,North,357,3.0,6.0,100,-99.99,,,0.00,0.230000,,2013-10-20 02:52:00,
2013-10-19 20:00:00,-999.0,-99.9,-100.00,NW,325,0.0,2.0,-999,-99.99,,,-99.99,,,2013-10-20 03:00:00,
2013-10-19 20:44:00,50.0,50.0,-100.00,NW,325,0.0,2.0,100,-99.99,,,0.00,0.000000,,2013-10-20 03:44:00,
2013-10-19 20:54:00,50.0,50.0,-100.00,NW,325,0.0,2.0,100,-99.99,,,0.00,0.000000,,2013-10-20 03:54:00,
2013-10-19 21:00:00,47.0,47.0,-100.00,ENE,66,1.0,2.0,100,-99.99,,,0.00,0.000000,,2013-10-20 04:00:00,
2013-10-19 21:44:00,47.0,47.0,-100.00,ENE,66,1.0,2.0,100,-99.99,,,0.00,0.000000,,2013-10-20 04:44:00,
2013-10-19 21:54:00,47.0,47.0,-100.00,ENE,66,1.0,2.0,100,-99.99,,,0.00,0.000000,,2013-10-20 04:54:00,
2013-10-19 22:00:00,52.0,52.0,-100.00,NNE,20,2.0,5.0,100,-99.99,,,0.00,0.000000,,2013-10-20 05:00:00,
2013-10-19 22:52:00,52.0,52.0,-100.00,NNE,20,2.0,5.0,100,-99.99,,,0.00,0.000000,,2013-10-20 05:52:00,
2013-10-19 23:00:00,52.0,52.0,-100.00,NNE,22,3.0,9.0,100,-99.99,,,0.00,0.000000,,2013-10-20 06:00:00,
2013-10-19 23:42:00,52.0,52.0,-100.00,NNE,22,3.0,9.0,100,-99.99,,,0.00,0.000000,,2013-10-20 06:42:00,
2013-10-19 23:52:00,52.0,52.0,-100.00,NNE,22,3.0,9.0,100,-99.99,,,0.00,0.000000,,2013-10-20 06:52:00,